Tracking 19176 objects as of 26-May-2018
HD Live streaming from Space Station
objects crossing your sky now

BREEZE-M R/B

Track BREEZE-M R/B now!


NORAD ID: 36500
Int'l Code: 2010-010B
Perigee: 2,548.2 km
Apogee: 34,002.1 km
Inclination: 26.2 °
Period: 641.8 minutes
Semi major axis: 24646 km
RCS: 6.4189 m2 (large)
Launch date: March 20, 2010
Source: Commonwealth of Independent States (former USSR) (CIS)
Launch site: TYURATAM MISSILE AND SPACE COMPLEX (TTMTR)

Note: This is a ROCKET BODY
aabbcc
Your satellite tracking list
Your tracking list is empty




NASA's NSSDC Master Catalog

Two Line Element Set (TLE):
1 36500U 10010B   18145.81883234 -.00000027 +00000-0 +00000-0 0  9992
2 36500 026.2335 140.0387 6381110 063.7895 038.7148 02.24377736067069
Source of the keplerian elements: AFSPC